Weather Roundup
Issued by NWS Chicago, IL

Home | Current Version | Previous Version | Graphics & Text | Print | Product List | Glossary On
Versions: 1 2 3 4 5 6 7 8 9 10 11 12 13 14 15 16 17 18 19 20 21 22 23 24 25 26 27 28 29 30 31 32 33 34 35 36 37 38 39 40 41 42 43 44 45 46 47 48 49 50
000
NZUS59 KLOT 281603
HRRLOT

CHICAGO AREA WEATHER ROUNDUP
NATIONAL WEATHER SERVICE CHICAGO/ROMEOVILLE IL
1100 AM CDT FRI AUG 28 2015

NOTE: "FAIR" INDICATES FEW OR NO CLOUDS BELOW 12,000 FEET WITH NO
SIGNIFICANT WEATHER AND/OR OBSTRUCTIONS TO VISIBILITY.

* THESE STATIONS ARE NOT UNDER NWS QUALITY CONTROL. THEY ALSO MAY NOT
  REPORT WEATHER SUCH AS PRECIPITATION OR FOG.

ILZ005-006-012>014-019>023-281700-
NORTHEAST ILLINOIS

CITY           SKY/WX    TMP DP  RH WIND       PRES   REMARKS
OHARE          CLOUDY    71  59  65 SW8       30.14F
MIDWAY         CLOUDY    73  59  61 SW8       30.15S
AURORA         CLOUDY    67  61  81 S3        30.16S
LANSING*       CLOUDY    72  62  70 S6        30.16S
WAUKEGAN       CLOUDY    72  60  66 SW7       30.14S
DUPAGE AIRPORT CLOUDY    68  60  75 S6        30.14F
WHEELING       CLOUDY    73  58  59 SW8       30.16S
NORTHERLY IS     N/A     72  58  61 S7          N/A
$$

WIZ051-052-058>065-066-070>072-281700-
SOUTHEAST WISCONSIN

CITY           SKY/WX    TMP DP  RH WIND       PRES   REMARKS
MILWAUKEE      CLOUDY    72  58  61 SW9       30.13F
KENOSHA*       CLOUDY    73  60  63 SW7       30.14F
RACINE*        CLOUDY    72  59  63 SE6       30.16S
WAUKESHA       SUNNY     66  59  77 CALM      30.15S
$$

INZ001>003-010>013-019-020-281700-
NORTHWEST INDIANA

CITY           SKY/WX    TMP DP  RH WIND       PRES   REMARKS
GARY*          CLOUDY    73  59  60 S5        30.16F
MICHIGAN CITY* NOT AVBL
RENSSELAER*    NOT AVBL
$$

LMZ740>746-281700-
SOUTHERN LAKE MICHIGAN

STATION/POSITION TIME  SKY/WX   TEMP WIND        PRES    VSBY
                                AIR  DIR/SP/G
                 (UTC)          (F)  (DEG/KT/KT) (MB)    (MI)
HARRISON CRIB    1500            66  160/  8/ 10   N/A
BURNHAM HARBOR   1600            72  200/  6/  9   N/A
CALUMET HARBOR   1500            69  200/  5/  7   N/A
BURNS HARBOR     1500            69  200/  6/  7 1022.0R
MICHIGAN CITY    1500            68  170/  6/  7   N/A
$$

ABBREVIATIONS USED IN REMARKS
   TC - TEMPERATURE IN CELSIUS
  WCI - WIND CHILL INDEX
   HX - HEAT INDEX
  VSB - VISIBILITY
$$


USA.gov is the U.S. government's official web portal to all federal, state and local government web resources and services.